• în România
  • Lista ţărilor
  • Pe 7 zile
  • Temperatura apei
  • Hartă satelitară
  • Meteo pe hartă
  • Widget-uri
  • user-avatar
    Intrare

    Meteo pe oră la Bambari

    Astăzi, 21 Iunie, Joi

    Timp Temperatura Precipitaţii Vânt Presiune Umiditate
    00:00 +25°C° 0 mm 1 m/s 723 mmHg 72%
    01:00 +22°C° 0 mm 0 m/s 723 mmHg 72%
    02:00 +22°C° 0 mm 0 m/s 723 mmHg 72%
    03:00 +22°C° 0 mm 0 m/s 723 mmHg 71%
    04:00 +23°C° 0 mm 0 m/s 723 mmHg 70%
    05:00 +23°C° 0 mm 0 m/s 724 mmHg 70%
    06:00 +26°C° 0 mm 1 m/s 724 mmHg 70%
    07:00 +27°C° 0 mm 1 m/s 724 mmHg 68%
    08:00 +28°C° 0 mm 1 m/s 724 mmHg 64%
    09:00 +30°C° 0 mm 1 m/s 724 mmHg 61%
    10:00 +31°C° 0 mm 2 m/s 725 mmHg 57%
    11:00 +32°C° 0 mm 2 m/s 724 mmHg 53%
    12:00 +34°C° 0 mm 2 m/s 724 mmHg 50%
    13:00 +34°C° 0 mm 2 m/s 723 mmHg 48%
    14:00 +34°C° 0 mm 2 m/s 723 mmHg 49%
    15:00 +32°C° 0 mm 1 m/s 723 mmHg 51%
    16:00 +32°C° 0 mm 1 m/s 722 mmHg 53%
    17:00 +30°C° 0,2 mm 1 m/s 723 mmHg 60%
    18:00 +28°C° 0,2 mm 1 m/s 723 mmHg 68%
    19:00 +26°C° 0,2 mm 1 m/s 723 mmHg 75%
    20:00 +25°C° 0,2 mm 1 m/s 723 mmHg 78%
    21:00 +25°C° 0,2 mm 1 m/s 723 mmHg 81%
    22:00 +24°C° 0,2 mm 1 m/s 723 mmHg 83%
    23:00 +24°C° 0 mm 1 m/s 723 mmHg 83%

    Mâine, 22 Iunie, Vineri

    Timp Temperatura Precipitaţii Vânt Presiune Umiditate
    00:00 +24°C° 0 mm 1 m/s 723 mmHg 83%
    01:00 +23°C° 0 mm 1 m/s 723 mmHg 82%
    02:00 +23°C° 0 mm 1 m/s 722 mmHg 83%
    03:00 +23°C° 0 mm 1 m/s 722 mmHg 83%
    04:00 +23°C° 0 mm 1 m/s 722 mmHg 83%
    05:00 +23°C° 0,4 mm 1 m/s 722 mmHg 84%
    06:00 +22°C° 0,4 mm 0 m/s 723 mmHg 86%
    07:00 +22°C° 0,4 mm 0 m/s 723 mmHg 87%
    08:00 +26°C° 0,2 mm 1 m/s 724 mmHg 78%
    09:00 +28°C° 0,2 mm 1 m/s 724 mmHg 68%
    10:00 +31°C° 0,2 mm 1 m/s 724 mmHg 58%
    11:00 +31°C° 0,1 mm 1 m/s 724 mmHg 55%
    12:00 +32°C° 0,1 mm 1 m/s 724 mmHg 52%
    13:00 +33°C° 0,1 mm 1 m/s 723 mmHg 48%
    14:00 +31°C° 1,1 mm 1 m/s 723 mmHg 60%
    15:00 +29°C° 1,1 mm 2 m/s 722 mmHg 72%
    16:00 +27°C° 1,1 mm 2 m/s 722 mmHg 84%
    17:00 +26°C° 0,6 mm 1 m/s 722 mmHg 87%
    18:00 +25°C° 0,6 mm 1 m/s 722 mmHg 91%
    19:00 +24°C° 0,6 mm 1 m/s 723 mmHg 94%
    20:00 +24°C° 0 mm 1 m/s 723 mmHg 94%
    21:00 +24°C° 0 mm 1 m/s 723 mmHg 94%
    22:00 +23°C° 0 mm 1 m/s 723 mmHg 94%
    23:00 +23°C° 0 mm 1 m/s 723 mmHg 94%

    Poimâine, 23 Iunie, Sâmbătă

    Timp Temperatura Precipitaţii Vânt Presiune Umiditate
    00:00 +23°C° 0 mm 1 m/s 723 mmHg 95%
    01:00 +23°C° 0 mm 1 m/s 723 mmHg 95%
    02:00 +22°C° 0 mm 1 m/s 722 mmHg 95%
    03:00 +22°C° 0 mm 1 m/s 722 mmHg 96%
    04:00 +22°C° 0 mm 1 m/s 722 mmHg 97%
    05:00 +23°C° 0 mm 1 m/s 723 mmHg 94%
    06:00 +24°C° 0 mm 1 m/s 723 mmHg 92%
    07:00 +24°C° 0 mm 1 m/s 724 mmHg 90%
    08:00 +26°C° 0,8 mm 1 m/s 724 mmHg 87%
    09:00 +27°C° 0,8 mm 1 m/s 724 mmHg 83%
    10:00 +29°C° 0,8 mm 2 m/s 724 mmHg 80%
    11:00 +30°C° 0,6 mm 1 m/s 724 mmHg 73%
    12:00 +31°C° 0,6 mm 1 m/s 723 mmHg 66%
    13:00 +32°C° 0,6 mm 1 m/s 723 mmHg 58%
    14:00 +31°C° 0,5 mm 1 m/s 722 mmHg 62%
    15:00 +31°C° 0,5 mm 1 m/s 722 mmHg 65%
    16:00 +30°C° 0,5 mm 1 m/s 721 mmHg 68%
    17:00 +28°C° 0 mm 2 m/s 722 mmHg 75%
    18:00 +27°C° 0 mm 2 m/s 722 mmHg 82%
    19:00 +25°C° 0 mm 2 m/s 722 mmHg 88%
    20:00 +24°C° 0 mm 2 m/s 722 mmHg 90%
    21:00 +24°C° 0 mm 2 m/s 722 mmHg 92%
    22:00 +23°C° 0 mm 2 m/s 722 mmHg 93%
    23:00 +23°C° 0 mm 1 m/s 722 mmHg 93%

    24 Iunie, Duminică

    Timp Temperatura Precipitaţii Vânt Presiune Umiditate
    00:00 +23°C° 0 mm 1 m/s 722 mmHg 94%
    01:00 +22°C° 0 mm 1 m/s 722 mmHg 94%
    02:00 +22°C° 0 mm 1 m/s 722 mmHg 94%
    03:00 +22°C° 0 mm 1 m/s 722 mmHg 95%
    04:00 +22°C° 0 mm 1 m/s 722 mmHg 95%
    05:00 +23°C° 0 mm 1 m/s 722 mmHg 91%
    06:00 +24°C° 0 mm 1 m/s 723 mmHg 88%
    07:00 +25°C° 0 mm 1 m/s 723 mmHg 84%
    08:00 +27°C° 0 mm 1 m/s 724 mmHg 74%
    09:00 +29°C° 0 mm 1 m/s 724 mmHg 63%
    10:00 +32°C° 0 mm 2 m/s 724 mmHg 53%
    11:00 +32°C° 0 mm 2 m/s 723 mmHg 50%
    12:00 +34°C° 0 mm 2 m/s 722 mmHg 46%
    13:00 +35°C° 0 mm 2 m/s 722 mmHg 42%
    14:00 +35°C° 0 mm 2 m/s 721 mmHg 45%
    15:00 +34°C° 0 mm 2 m/s 721 mmHg 47%
    16:00 +34°C° 0 mm 2 m/s 720 mmHg 50%
    17:00 +31°C° 0 mm 2 m/s 720 mmHg 56%
    18:00 +29°C° 0 mm 1 m/s 721 mmHg 61%
    19:00 +27°C° 0 mm 1 m/s 721 mmHg 67%
    20:00 +27°C° 0 mm 1 m/s 721 mmHg 67%
    21:00 +27°C° 0 mm 1 m/s 722 mmHg 68%
    22:00 +26°C° 0 mm 1 m/s 722 mmHg 68%
    23:00 +26°C° 0 mm 1 m/s 721 mmHg 70%

    25 Iunie, Luni

    Timp Temperatura Precipitaţii Vânt Presiune Umiditate
    00:00 +26°C° 0 mm 1 m/s 721 mmHg 71%
    01:00 +25°C° 0 mm 1 m/s 720 mmHg 72%
    02:00 +25°C° 0 mm 1 m/s 720 mmHg 74%
    03:00 +22°C° 0 mm 0 m/s 720 mmHg 76%
    04:00 +22°C° 0 mm 0 m/s 720 mmHg 78%
    05:00 +23°C° 0 mm 0 m/s 721 mmHg 77%
    06:00 +23°C° 0 mm 0 m/s 722 mmHg 75%
    07:00 +24°C° 0 mm 0 m/s 722 mmHg 74%
    08:00 +26°C° 0 mm 0 m/s 723 mmHg 68%
    09:00 +29°C° 0 mm 1 m/s 723 mmHg 63%
    10:00 +31°C° 0 mm 1 m/s 723 mmHg 58%
    11:00 +32°C° 0,4 mm 1 m/s 722 mmHg 55%
    12:00 +33°C° 0,4 mm 1 m/s 722 mmHg 53%
    13:00 +34°C° 0,4 mm 1 m/s 721 mmHg 50%
    14:00 +33°C° 0 mm 1 m/s 721 mmHg 52%
    15:00 +33°C° 0 mm 1 m/s 721 mmHg 53%
    16:00 +32°C° 0 mm 1 m/s 720 mmHg 55%
    17:00 +30°C° 0,2 mm 1 m/s 721 mmHg 63%
    18:00 +28°C° 0,2 mm 1 m/s 721 mmHg 71%
    19:00 +27°C° 0,2 mm 1 m/s 721 mmHg 78%
    20:00 +26°C° 0,1 mm 1 m/s 721 mmHg 80%
    21:00 +26°C° 0,1 mm 1 m/s 721 mmHg 82%
    22:00 +25°C° 0,1 mm 1 m/s 721 mmHg 83%
    23:00 +25°C° 0,2 mm 1 m/s 721 mmHg 84%

    26 Iunie, Marţi

    Timp Temperatura Precipitaţii Vânt Presiune Umiditate
    00:00 +25°C° 0,2 mm 1 m/s 720 mmHg 86%
    01:00 +24°C° 0,2 mm 1 m/s 720 mmHg 87%
    02:00 +24°C° 0,2 mm 1 m/s 720 mmHg 88%
    03:00 +22°C° 0,2 mm 0 m/s 720 mmHg 90%
    04:00 +21°C° 0,2 mm 0 m/s 721 mmHg 91%
    05:00 +22°C° 0 mm 0 m/s 721 mmHg 89%
    06:00 +23°C° 0 mm 0 m/s 722 mmHg 87%
    07:00 +24°C° 0 mm 0 m/s 722 mmHg 84%
    08:00 +28°C° 0,1 mm 1 m/s 722 mmHg 75%
    09:00 +30°C° 0,1 mm 2 m/s 722 mmHg 66%
    10:00 +32°C° 0,1 mm 2 m/s 722 mmHg 56%
    11:00 +34°C° 0 mm 2 m/s 721 mmHg 52%
    12:00 +35°C° 0 mm 2 m/s 721 mmHg 47%
    13:00 +36°C° 0 mm 2 m/s 720 mmHg 43%
    14:00 +35°C° 0,1 mm 2 m/s 720 mmHg 49%
    15:00 +32°C° 0,1 mm 1 m/s 720 mmHg 56%
    16:00 +31°C° 0,1 mm 1 m/s 719 mmHg 63%
    17:00 +29°C° 0,7 mm 1 m/s 720 mmHg 68%
    18:00 +28°C° 0,7 mm 1 m/s 720 mmHg 74%
    19:00 +24°C° 0,7 mm 0 m/s 721 mmHg 80%
    20:00 +24°C° 0 mm 0 m/s 721 mmHg 81%
    21:00 +25°C° 0 mm 1 m/s 721 mmHg 83%
    22:00 +25°C° 0 mm 1 m/s 721 mmHg 85%
    23:00 +24°C° 0,1 mm 1 m/s 721 mmHg 87%
    Arată mai mult